Regional Weather Roundup
Issued by NWS

Home | Current Version | Previous Version | Graphics & Text | Print | Product List | Glossary On
Versions: 1 2 3 4 5 6 7 8 9 10 11 12 13 14 15 16 17 18 19 20 21 22 23 24 25 26 27 28 29 30 31 32 33 34 35 36 37 38 39 40 41 42 43 44 45 46 47 48 49 50
480
ASUS43 KLOT 271903
RWRIL

ILLINOIS REGIONAL WEATHER ROUNDUP
NATIONAL WEATHER SERVICE CHICAGO/ROMEOVILLE IL
200 PM CDT SAT AUG 27 2016

NOTE: "FAIR" INDICATES FEW OR NO CLOUDS BELOW 12,000 FEET WITH NO
SIGNIFICANT WEATHER AND/OR OBSTRUCTIONS TO VISIBILITY.

* THESE STATIONS ARE NOT UNDER NWS QUALITY CONTROL. THEY ALSO MAY NOT
  REPORT WEATHER SUCH AS PRECIPITATION OR FOG.

ILZ001-002-007-009-015-016-024-272000-
NORTHWEST ILLINOIS

CITY           SKY/WX    TMP DP  RH WIND       PRES   REMARKS
MOLINE         MOSUNNY   83  71  67 W8        30.01S HX  87
STERLING*      PTSUNNY   82  72  71 SW9       30.02S HX  87
SAVANNA*       PTSUNNY   81  70  68 SW7       30.01F HX  85
$$

ILZ003-004-008-010-011-017-018-272000-
NORTH CENTRAL ILLINOIS

CITY           SKY/WX    TMP DP  RH WIND       PRES   REMARKS
ROCKFORD       CLOUDY    81  71  71 SW6       30.02F HX  85
FREEPORT*      MOSUNNY   80  68  67 SW13      30.04S HX  82
ROCHELLE*      PTSUNNY   80  71  73 SW9       30.03S HX  83
$$

ILZ005-006-012>014-019>023-272000-
NORTHEAST ILLINOIS

CITY           SKY/WX    TMP DP  RH WIND       PRES   REMARKS
CHICAGO-OHARE  PTSUNNY   80  70  71 SW12      30.02F HX  83
CHICAGO-MIDWAY PTSUNNY   82  71  69 SW13      30.02F HX  86
AURORA         PTSUNNY   81  71  71 S9G18     30.03F HX  85
LANSING*       MOSUNNY   83  75  79 SW10      30.04F HX  90
JOLIET*        MOSUNNY   83  74  73 S9        30.03F HX  90
WAUKEGAN       CLOUDY    79  71  76 S14       30.02F HX  82
DUPAGE AIRPORT CLOUDY    80  71  74 S9        30.03F HX  84
KANKAKEE*      PTSUNNY   84  74  71 SW8       30.05S HX  90
WHEELING       CLOUDY    80  70  71 S12       30.04S HX  83
MORRIS*        MOSUNNY   83  72  69 SW9       30.02F HX  87
ROMEOVILLE*    MOSUNNY   81  74  80 SW7       30.03F HX  86
NORTHERLY ISL    N/A     81  68  64 S8          N/A  HX  84
$$

LMZ740>746-272000-
SOUTHERN LAKE MICHIGAN

STATION/POSITION SKY/WX   TEMP    WIND        PRES    VSBY  WAVE
                          AIR SEA DIR/SP/G                  HT/PER
                          (F)     (DEG/KT/KT) (MB)    (MI)  (FT/S)
SOUTHERN BUOY              74 74  160/ 14/ 16 1016.8          2/ 4
WILMETTE HARBOR            71 69  170/  6/  8   N/A           2/ 4
HARRISON CRIB              77     160/  8/  9   N/A
BURNHAM HARBOR             80     180/  7/ 11   N/A
CALUMET HARBOR             79     170/ 11/ 14 1016.8F
BURNS HARBOR               80     190/  9/ 16 1017.6F
MICHIGAN CITY              78     140/ 11/ 15   N/A
MICHIGAN CITY 6N           77 75  170/ 10/ 12   N/A           1/ 2
ST. JOSEPH                 76 75  150/ 10/ 14 1017.3F         1/ 2
$$

ILZ025>027-034>036-040-047-049-050-058-095>099-272000-
WEST-CENTRAL ILLINOIS

CITY           SKY/WX    TMP DP  RH WIND       PRES   REMARKS
QUINCY         MOSUNNY   86  73  65 W12       30.03R HX  93
GALESBURG*     CLOUDY    82  71  68 SW7       30.04S HX  86
MACOMB*        CLOUDY    82  73  73 W8        30.06R HX  87
JACKSONVILLE*  MOSUNNY   85  72  63 W3        30.04S HX  91
PITTSFIELD*    CLOUDY    86  73  64 S6        30.05S HX  93
$$

ILZ028>032-037-038-041>044-048-051>054-059>061-272000-
CENTRAL ILLINOIS

CITY           SKY/WX    TMP DP  RH WIND       PRES   REMARKS
PONTIAC        PTSUNNY   85  75  74 SW8       30.04F HX  93
BLOOMINGTON    MOSUNNY   84  72  67 SW13      30.06F HX  89
DECATUR        MOSUNNY   87  73  62 S8        30.05F HX  94
PEORIA         CLOUDY    82  75  79 S9        30.03S HX  89
LACON*         CLOUDY    81  71  71 SW9       30.02F HX  84
LINCOLN*       MOSUNNY   86  74  66 CALM      30.04F HX  94
SPRINGFIELD    MOSUNNY   88  73  61 SW8       30.04F HX  95
TAYLORVILLE    MOSUNNY   85  74  69 S5        30.04F HX  92
$$

ILZ033-039-045-046-055>057-062-063-272000-
EAST-CENTRAL ILLINOIS

CITY           SKY/WX    TMP DP  RH WIND       PRES   REMARKS
CHAMPAIGN      MOSUNNY   84  74  71 S8        30.06F HX  91
RANTOUL*       PTSUNNY   85  74  69 S8        30.05F HX  93
MATTOON        MOSUNNY   84  72  67 S8        30.07S HX  89
PARIS*         SUNNY     84  75  74 S6        30.08S HX  92
$$

ILZ079-100>102-272000-
SOUTHWEST ILLINOIS

CITY           SKY/WX    TMP DP  RH WIND       PRES   REMARKS
ALTON          PTSUNNY   86  72  62 SE8       30.05S HX  92
BELLEVILLE     SUNNY     89  72  57 S6        30.04S HX  95
CAHOKIA*       MOSUNNY   90  71  53 S5        30.03F HX  96
SPARTA*        MOSUNNY   85  74  68 E8        30.07S HX  93
$$

ILZ064>066-069>071-074>076-080>082-084>086-088>090-092>094-272000-
SOUTH-CENTRAL ILLINOIS

CITY           SKY/WX    TMP DP  RH WIND       PRES   REMARKS
CARBONDALE     MOSUNNY   85  72  65 E3        30.07F HX  91
EFFINGHAM*     MOSUNNY   86  75  69 SE8       30.08F HX  95
MARION         MOSUNNY   86  73  66 SE7       30.08F HX  93
MT. VERNON     MOSUNNY   88  72  58 CALM      30.08F HX  94
CENTRALIA*     SUNNY     86  74  67 SE7       30.06F HX  94
SALEM*         SUNNY     87  73  62 SE5       30.07F HX  93
METROPOLIS*    SUNNY     88  74  63 CALM      30.08F HX  95
$$

ILZ067-068-072-073-078-083-087-091-272000-
SOUTHEAST ILLINOIS

CITY           SKY/WX    TMP DP  RH WIND       PRES   REMARKS
LAWRENCEVILLE  MOSUNNY   85  74  69 S8        30.08F HX  92
FLORA*         MOSUNNY   86  72  62 S6        30.08S HX  92
FAIRFIELD*     MOSUNNY   85  73  68 CALM      30.06F HX  91
HARRISBURG*    SUNNY     86  74  67 W3        30.07F HX  93
ROBINSON*      SUNNY     84  72  67 SE3       30.09S HX  90
CARMI*         PTSUNNY   85  76  73 S5        30.07S HX  95
$$

ABBREVIATIONS USED IN REMARKS
   TC - TEMPERATURE IN CELSIUS
  WCI - WIND CHILL INDEX
   HX - HEAT INDEX
  VSB - VISIBILITY
$$





USA.gov is the U.S. government's official web portal to all federal, state and local government web resources and services.